#timestamp,LO_Frequency,Hit,StdDev 
1682848815.6,286046996.4,N
1682848835.4,286046994.0,N
1682848855.3,286046990.2,Y
1682848875.1,286046993.8,P
1682848895.9,286046992.4,P
1682848915.7,286046983.3,P
1682848935.5,286046978.9,Y
1682848955.4,286046992.2,P
1682848975.2,286046994.0,P
1682848995.0,286046993.7,P
1682848995.9,286046993.7,Y
1682849015.8,286047005.9,P
1682849035.6,286047006.0,N
1682849055.5,286047005.9,N
1682849075.3,286047003.7,N
1682849095.1,286046998.2,N
1682849115.9,286046992.5,N
1682849135.7,286046995.3,N
1682849155.5,286046998.7,N
1682849175.4,286047000.2,N
1682849195.2,286047000.6,N
1682849215.1,286047000.9,N
1682849216.0,286047000.9,N
1682849235.8,286046999.1,N
1682849255.6,286046998.1,N
1682849275.5,286046995.0,N
1682849295.3,286046995.9,N
1682849315.1,286046987.6,N
1682849335.9,286046977.0,Y
1682849355.7,286046961.8,P
1682849375.6,286046965.0,N
1682849395.4,286046971.7,N
1682849415.2,286046971.3,N
1682849435.1,286046977.1,N
1682849436.0,286046977.1,N
1682849455.8,286046980.2,N
1682849475.6,286046978.4,N
1682849495.5,286046964.6,Y
1682849515.3,286046978.8,P
1682849535.2,286046977.7,P
1682849555.9,286046978.8,P
1682849575.7,286046972.2,Y
1682849595.6,286046993.9,P
1682849615.4,286046998.3,N
1682849635.3,286047003.4,N
1682849655.1,286047004.7,N
1682849656.0,286047004.7,N
1682849675.8,286047006.9,N
1682849695.7,286047006.4,N
1682849715.5,286047010.2,N
1682849735.3,286047010.6,N
1682849755.2,286047006.4,N
1682849775.0,286047005.6,N
1682849775.9,286047005.6,N
1682849795.8,286047003.5,N
1682849815.6,286047002.3,N
1682849835.4,286046995.0,N
1682849855.3,286046997.6,N
1682849875.1,286046994.0,N
1682849895.8,286046985.3,N
1682849915.7,286046982.5,N
1682849935.5,286046985.0,N
1682849955.3,286046984.2,N
1682849975.2,286046980.8,N
1682849995.0,286046973.4,N
1682849995.9,286046973.4,N
1682850015.8,286046973.2,N
1682850035.6,286046975.0,N
1682850055.4,286046979.2,N
1682850075.3,286046983.0,N
1682850095.1,286046986.3,N
1682850115.8,286046985.5,N
1682850135.7,286046981.0,N
1682850155.5,286046967.7,N
1682850175.4,286046960.7,Y
1682850195.2,286046964.8,P
1682850215.0,286046968.6,N
1682850215.9,286046968.6,N
1682850235.8,286046973.5,N
1682850255.6,286046980.4,N
1682850275.5,286046979.5,N
1682850295.3,286046977.0,N
1682850315.1,286046964.8,Y
1682850335.9,286046984.5,P
1682850355.7,286046981.5,P
1682850375.5,286046975.0,P
1682850395.4,286046981.1,Y
1682850415.2,286047007.1,P
1682850435.1,286047004.7,N
1682850436.0,286047004.7,N
1682850455.8,286047001.9,N
1682850475.6,286047007.4,N
1682850495.5,286047009.2,N
1682850515.3,286047011.9,N
1682850535.1,286047006.2,N
1682850555.9,286047000.9,N
1682850575.7,286046990.1,N
1682850595.6,286046986.6,N
1682850615.4,286046980.6,N
1682850635.2,286046986.6,N
1682850655.1,286046987.6,N
1682850656.0,286046987.6,N
1682850675.8,286046993.3,N
1682850695.6,286047005.3,N
1682850715.5,286047011.2,N
1682850735.3,286047016.8,N
1682850755.2,286047021.7,N
1682850775.9,286047024.6,N
1682850795.7,286047023.7,N
1682850815.6,286047021.7,N
1682850835.4,286047013.6,N
1682850855.2,286047003.6,N
1682850875.1,286046995.4,N
1682850876.0,286046995.4,N
1682850895.8,286046988.6,N
1682850915.7,286046985.2,N
1682850935.5,286046985.0,N
1682850955.3,286046989.7,N
1682850975.2,286046997.3,N
1682850995.9,286046999.8,N
1682851015.7,286047001.6,N
1682851035.6,286046995.9,N
1682851055.4,286046988.3,N
1682851075.2,286046985.2,N
1682851095.1,286046989.3,N
1682851096.0,286046989.3,N
1682851115.8,286046998.0,N
1682851135.7,286046998.5,N
1682851155.5,286047004.2,N
1682851175.3,286047004.0,N
1682851195.2,286047006.0,N
1682851215.0,286047002.4,N
1682851215.9,286047002.4,N
1682851235.8,286047005.1,N
1682851255.6,286047006.8,N
1682851275.4,286047008.4,N
1682851295.3,286047009.9,N
1682851315.1,286047011.7,N
1682851335.8,286047011.4,N
1682851355.7,286047006.4,N
1682851375.5,286047009.8,N
1682851395.4,286047009.6,N
1682851415.2,286047010.5,N
1682851435.0,286047009.9,N
1682851435.9,286047009.9,N
1682851455.8,286047011.9,N
1682851475.6,286047011.5,N
1682851495.4,286047013.4,N
1682851515.3,286047015.3,N
1682851535.1,286047013.2,N
1682851555.9,286047011.3,N
1682851575.7,286047010.1,N
1682851595.5,286047005.7,N
1682851615.4,286047004.9,N
1682851635.2,286047006.7,N
1682851655.0,286047005.7,N
1682851656.0,286047005.7,N
1682851675.8,286047002.9,N
1682851695.6,286047002.5,N
1682851715.5,286046999.5,N
1682851735.3,286046983.8,Y
1682851755.1,286046977.0,P
1682851775.9,286046981.0,N
1682851795.7,286046986.7,N
1682851815.6,286046988.4,N
1682851835.4,286046985.3,N
1682851855.2,286046986.0,N
1682851875.1,286046986.4,N
1682851876.0,286046986.4,N
1682851895.8,286046985.8,N
1682851915.6,286046987.8,N
1682851935.5,286046988.7,N
1682851955.3,286046987.4,N
1682851975.2,286046990.0,N
1682851995.9,286046991.4,N
1682852015.7,286046988.1,N
1682852035.6,286046987.5,N
1682852055.4,286046991.2,N
1682852075.2,286046990.5,N
1682852095.1,286046988.5,N
1682852096.0,286046988.5,N
1682852115.8,286046991.1,N
1682852135.7,286046989.5,N
1682852155.5,286046988.2,N
1682852175.3,286046989.5,N
1682852195.2,286046989.6,N
1682852215.0,286046989.6,N
1682852215.9,286046989.6,N
1682852235.7,286046979.2,Y
1682852255.6,286046985.4,P
1682852275.4,286046989.3,P
1682852295.3,286046990.5,P
1682852315.1,286046992.4,Y
1682852316.0,286046992.4,P
1682852335.8,286047003.0,N
1682852355.7,286047003.4,N
1682852375.5,286047000.7,N
1682852395.3,286046992.5,N
